FW3337 Weather Reports


Display with metric or nautical units.
time (UTC)temp
F
wind
direction
speed
MPH
gust
MPH
rain 1hr
in
rain 24hr
in
rain mn
in
humidity
%
barometer
mb
20260905034539 70 296 0.0 2.0 0.00 0.06 0.06 78 1010.3
20260905033040 70 296 0.0 2.0 0.00 0.06 0.06 79 1010.4
20260905031542 68 267 0.0 3.0 0.00 0.06 0.06 84 1010.3
20260905030038 66 260 0.0 2.0 0.00 0.06 0.06 93 1010.5
20260905024547 65 260 0.0 0.0 0.00 0.06 0.06 95 1010.5
20260905023035 65 260 0.0 0.0 0.00 0.06 0.06 95 1010.5
20260905021537 65 260 0.0 0.0 0.00 0.06 0.06 94 1010.4
20260905020037 65 260 0.0 0.0 0.00 0.06 0.06 94 1010.5
20260905014532 66 260 0.0 0.0 0.00 0.06 0.06 93 1010.6
20260905013030 66 260 0.0 0.0 0.00 0.06 0.06 93 1010.6
20260905011528 67 260 0.0 0.0 0.00 0.06 0.06 92 1010.5
20260905010036 67 260 0.0 0.0 0.00 0.06 0.06 92 1010.6
20260905004525 68 260 0.0 0.0 0.00 0.06 0.06 91 1010.6
20260905003023 68 260 0.0 0.0 0.00 0.06 0.06 90 1010.4
20260905001521 69 260 0.0 0.0 0.00 0.06 0.06 89 1010.3
20260905000031 70 260 0.0 0.0 0.00 0.06 0.06 87 1010.2
20260904234523 71 260 0.0 0.0 0.00 0.06 0.06 86 1010.2
20260904233020 72 260 0.0 0.0 0.00 0.06 0.06 84 1010.1
20260904231520 74 260 0.0 0.0 0.00 0.06 0.06 80 1010.0
20260904230019 75 260 0.0 0.0 0.00 0.06 0.06 77 1010.0
20260904224518 77 260 0.0 1.0 0.00 0.06 0.06 72 1010.0
20260904223019 78 260 0.0 1.0 0.00 0.06 0.06 67 1010.0
20260904221517 78 260 0.0 2.0 0.00 0.06 0.06 65 1010.1
20260904220017 79 260 0.0 2.0 0.00 0.06 0.06 63 1009.9
20260904214516 79 260 0.0 2.0 0.00 0.06 0.06 63 1009.9
20260904213015 80 260 0.0 3.0 0.00 0.06 0.06 61 1009.8
20260904211516 80 288 0.0 4.0 0.00 0.06 0.06 61 1009.8
20260904210019 81 339 0.0 5.0 0.00 0.06 0.06 60 1009.9
20260904204515 81 339 0.0 5.0 0.00 0.06 0.06 59 1010.0
20260904203018 81 296 0.0 4.0 0.00 0.06 0.06 60 1010.1
20260904201512 81 231 1.0 4.0 0.00 0.06 0.06 60 1010.3
20260904200012 81 212 1.0 5.0 0.00 0.06 0.06 62 1010.2
20260904194511 80 264 0.0 3.0 0.00 0.06 0.06 63 1010.2
20260904193010 80 278 0.0 4.0 0.00 0.06 0.06 67 1010.3
20260904191509 80 307 0.0 1.0 0.00 0.06 0.06 67 1010.4
20260904190009 80 18 0.0 2.0 0.00 0.06 0.06 67 1010.5
20260904184512 80 18 0.0 1.0 0.00 0.06 0.06 66 1010.7
20260904183007 80 29 0.0 1.0 0.00 0.06 0.06 67 1010.7
20260904181507 81 15 0.0 4.0 0.00 0.06 0.06 64 1010.7
20260904180007 82 154 0.0 3.0 0.00 0.06 0.06 60 1010.8
20260904174504 82 50 0.0 3.0 0.00 0.06 0.06 62 1010.6
20260904173001 81 291 1.0 5.0 0.00 0.06 0.06 63 1010.7
20260904171600 81 66 0.0 7.0 0.00 0.06 0.06 64 1010.7
20260904170059 80 293 2.0 7.0 0.00 0.06 0.06 65 1010.8
20260904164600 80 312 0.0 10.0 0.00 0.07 0.06 65 1011.0
20260904163058 81 152 0.0 7.0 0.00 0.07 0.06 67 1010.8
20260904161602 80 60 0.0 6.0 0.00 0.07 0.06 68 1010.9
20260904160054 80 314 1.0 10.0 0.00 0.07 0.06 67 1011.0
20260904154552 79 303 1.0 6.0 0.00 0.07 0.06 70 1011.0
20260904153052 79 305 1.0 6.0 0.00 0.07 0.06 70 1011.1
20260904151551 79 114 2.0 5.0 0.00 0.07 0.06 71 1011.5
20260904150047 79 68 1.0 6.0 0.00 0.07 0.06 73 1011.4
20260904144546 78 39 0.0 5.0 0.00 0.07 0.06 76 1011.2
20260904143042 77 329 0.0 3.0 0.00 0.07 0.06 78 1011.2
20260904141551 77 83 0.0 2.0 0.00 0.07 0.06 78 1011.1
20260904140037 76 74 0.0 3.0 0.00 0.07 0.06 81 1011.0
20260904134548 75 293 0.0 4.0 0.00 0.07 0.06 82 1011.1
20260904133028 74 122 0.0 3.0 0.00 0.07 0.06 87 1011.1
20260904131524 73 293 0.0 6.0 0.00 0.07 0.06 90 1011.1
20260904130022 72 289 1.0 7.0 0.00 0.07 0.06 89 1011.1
20260904124521 72 220 0.0 5.0 0.00 0.07 0.06 92 1011.1
20260904123019 71 174 0.0 2.0 0.00 0.07 0.06 95 1011.2
20260904121518 70 105 0.0 3.0 0.00 0.07 0.06 97 1011.1
20260904120021 70 141 0.0 3.0 0.00 0.07 0.06 97 1011.0
20260904114517 70 135 0.0 2.0 0.00 0.07 0.06 98 1011.1
20260904113017 70 243 0.0 3.0 0.00 0.07 0.06 98 1011.0
20260904111515 69 242 0.0 3.0 0.00 0.07 0.06 98 1010.6
20260904110015 69 266 0.0 2.0 0.00 0.07 0.06 98 1010.6
20260904104515 69 267 1.0 4.0 0.00 0.07 0.06 98 1010.5
20260904103014 69 216 0.0 3.0 0.00 0.07 0.06 98 1010.4
20260904101513 69 216 0.0 2.0 0.00 0.07 0.06 97 1010.2
20260904100012 69 216 0.0 0.0 0.00 0.07 0.06 98 1010.0
20260904094521 69 216 0.0 1.0 0.00 0.07 0.06 97 1009.9
20260904093010 70 216 0.0 0.0 0.00 0.07 0.06 97 1009.7
20260904091509 70 216 0.0 1.0 0.00 0.07 0.06 97 1009.7
20260904090024 71 216 0.0 1.0 0.00 0.07 0.06 98 1009.7
20260904084505 71 216 0.0 0.0 0.00 0.07 0.06 97 1009.8
20260904083003 71 216 0.0 1.0 0.00 0.07 0.06 98 1009.8
20260904081505 71 216 0.0 0.0 0.00 0.07 0.06 98 1009.7
20260904080002 71 216 0.0 0.0 0.00 0.07 0.06 98 1009.5
20260904074501 72 216 0.0 1.0 0.00 0.07 0.06 98 1009.6
20260904073101 72 216 0.0 8.0 0.00 0.07 0.06 98 1009.9
20260904071620 71 246 0.0 0.0 0.00 0.07 0.06 98 1009.9
20260904070116 71 247 0.0 0.0 0.00 0.07 0.06 97 1009.8
20260904064656 72 247 0.0 1.0 0.00 0.08 0.06 98 1010.0
20260904063104 72 247 0.0 0.0 0.00 0.08 0.06 98 1010.2
20260904061553 72 247 0.0 0.0 0.00 0.08 0.06 98 1010.2
20260904060053 72 247 0.0 0.0 0.00 0.08 0.06 97 1010.0
20260904054552 72 247 0.0 0.0 0.00 0.15 0.06 97 1010.3
20260904053059 72 247 0.0 0.0 0.00 0.15 0.06 97 1010.8
20260904051549 72 247 0.0 1.0 0.06 0.15 0.06 97 1010.7
20260904050047 72 247 0.0 0.0 0.06 0.15 0.06 97 1010.7
20260904044546 72 247 0.0 0.0 0.06 0.33 0.06 97 1010.7
20260904043055 72 246 0.0 0.0 0.06 0.33 0.06 97 1010.9
20260904041541 72 247 0.0 3.0 0.00 0.27 0.00 97 1011.1
20260904040050 72 247 0.0 0.0 0.00 0.27 0.00 97 1011.3